Вернуться в каталог

CZ-6A DEB

АктивенSSO
NORAD 54617·DEBRIS·🇨🇳 China

Запущен Nov 11, 2022 с Taiyuan Satellite Launch Center

Loading…

Ближайшие Пролёты (ближайшие 24 часа)

TLE

СвежийSource: Space-Track

Эпоха: Sep 14, 2026, 00:44 UTC

1 54617U 22151NT  26257.03094794  .00001122  00000-0  54462-3 0  9992
2 54617  98.8179 272.4125 0026389  55.7864 304.5808 14.20174361197210

Отслеживайте CZ-6A DEB в реальном времени с AllMySat

Download on the App Store